DECAYED

STARLINK-5219, 54094 (Decayed)

Orbit data source: Space-Track

STARLINK-5219, 54094 was a payload satellite owned by SpaceX/Seattle (US) in LEO that was launched on Thu, 20 Oct 2022 UTC via an FALCON 9 launch vehicle from the Air Force Eastern Test Range (AFETR). Payload-class satellites include a variety of spacecraft equipped with specific instruments for various scientific and technological missions. These include communications satellites like Starlink; space stations such as the ISS; scientific satellites like the Hubble; Earth observation satellites from companies like Planet Labs, Umbra, and HawkEye 360; GPS; miniature CubeSats for education and research; and military/defense satellites.

Not visible in the next 10 days
Identifier
54094, 2022-136AV
Orbit
Decayed
Country
Flag of USUS
Related business
Manufacturer
SpaceX/Seattle
Mission
Decayed Commercial Communications
Bus & Motor
STARLINK, Unknown motor
Mass
305 kg wet, ~290 kg dry
Launch date (UTC)
2022-10-20 (4 years ago)
Launch vehicle
FALCON 9
Launch site
Air Force Eastern Test Range (AFETR)
Object type
Payload
Rocket body
Debris
Shape & HBR
Box + 1 Pan, 10.1 m
Radar Cross Section
13.562 m², Large (>1 m²)

Expand to show TLE details & history
Last TLE update: 5 months ago

TLE from 5 months ago
0 STARLINK-5219
1 54094U 22136AV  26013.94778579  .12849066  12525-4  31888-3 0  9990
2 54094  53.2200 197.3457 0001780 285.5743  74.5112 16.46140583179030
Epoch: 2026-01-13T22:44Z
TLE epoch observation values (Epoch: 2026-01-13T22:44:48.692Z)
Latitude
-0.00001°
Longitude
102.72°
Altitude
150.16 km
Speed
7.818 km/s
True Right ascension
13h 09m 22s
True Declination
0° 00' 00"
Sunlit
Object was in daylight at epoch
Visualization orbit readout
Latitude
Unknown
Longitude
Unknown
Altitude
Unknown
Speed
Unknown
Apparent Right ascension
Unknown
Apparent Declination
Unknown
Sunlit
N/A
Visualization observer readout
Local Sidereal Time
21:40:46
Azimuth
Unknown
Elevation
Unknown
Doppler factor
Unknown
Orbital elements
Apogee altitude
150.939 km
Perigee altitude
148.615 km
Semi-major axis
6,527.914 km
Eccentricity
0.00018
Inclination
53.22°
RAAN
197.3457°
Arg. of periapsis
285.5743°
True anomaly
74.53086°
Mean anomaly
74.5112°
Eccentric anomaly
74.52103°
Mean motion
4.11511 °/min
Orbital period
87.48 mins
BSTAR
0.00031888
Loading maneuver chart data...
Computing Atmospheric mass density...
Loading historical data...
Loading historical data...
Loading historical data...
Loading historical data...
Loading historical data...
Loading historical data...
Loading historical data...

Documentation

Showing up to 5 results
|